Regional Weather Roundup
Issued by NWS Grand Forks, ND

Home | Current Version | Previous Version | Graphics & Text | Print | Product List | Glossary On
Versions: 1 2 3 4 5 6 7 8 9 10 11 12 13 14 15 16 17 18 19 20 21 22 23 24 25 26 27 28 29 30 31 32 33 34 35 36 37 38 39 40 41 42 43 44 45 46 47 48 49 50
670
ASUS43 KFGF 060231
RWRFGF
PRAIRIE TO PINES  WEATHER ROUNDUP
NATIONAL WEATHER SERVICE EASTERN NORTH DAKOTA/GRAND FORKS ND
900 PM CDT THU MAY 05 2016

 **SATELLITE DATA USED TO AUGMENT SKY COVER AT AUTOMATED STATIONS**
 *****  WEATHER ACROSS EASTERN NORTH DAKOTA  *****

CITY           SKY/WX    TMP DP  RH WIND       PRES   REMARKS
GRAND FORKS    PTCLDY    74  36  25 SW7       29.71S
GRAND FRKS AFB CLEAR     72  39  30 SW7       29.72S
DEVILS LAKE    CLOUDY    75  42  30 S8        29.74S
FARGO          CLEAR     77  39  25 SW12      29.75S
WAHPETON ARPT  CLEAR     73  32  21 SW8       29.81R
$$

 ***** WEATHER ACROSS CENTRAL AND WESTERN NORTH DAKOTA  *****

CITY           SKY/WX    TMP DP  RH WIND       PRES   REMARKS
BISMARCK       PTCLDY    69  49  48 S5        29.77S
MINOT          CLOUDY    82  41  23 SW7       29.72S
JAMESTOWN      CLEAR     76  43  30 SW6       29.76S
MINOT AFB      CLOUDY    78  41  26 SW8       29.70F
GARRISON         N/A     74  41  30 S3        29.75S
WILLISTON      PTCLDY    72  44  36 W8        29.74R HAZE
DICKINSON      MOCLDY    78  31  17 S3        29.79S
HETTINGER      MOCLDY    72  51  47 S3        29.84R
$$

 *****  OTHER AIRPORT OBSERVATIONS IN OUR AREA  *****

CITY           SKY/WX    TMP DP  RH WIND       PRES   REMARKS
WALHALLA       FAIR      81  39  22 SW7       29.68S
GRAFTON AIRPOR FAIR      72  39  30 SW10      29.71S
VALLEY CITY AR FAIR      73  43  33 SW12      29.80R
CANDO          FAIR      75  39  27 SW10      29.74S
CAVALIER APRT  FAIR      79  41  25 SW8       29.68S
GWINNER        FAIR      73  41  31 S12       29.81S
SHEYENNE NWR     N/A     70  41  35 SW7       29.95S
ROLLA          FAIR      72  41  33 SW8       29.73S
 ***** THE ABOVE OBSERVATIONS ARE NON NWS ARE NOT QUALITY
       CONTROLLED AND MAY MIS-REPORT RAIN FOR SNOW...
$$

  *****  WEATHER ACROSS NORTHERN MINNESOTA  *****

CITY           SKY/WX    TMP DP  RH WIND       PRES   REMARKS
FLAG ISLAND    CLEAR     59  43  55 S7        29.66S
WARROAD        CLEAR     77  46  33 S3        29.69S
ROSEAU         CLEAR     75  43  31 SW7       29.69R
HALLOCK        PTCLDY    79  30  17 SW12      29.67R
THF RVR FALLS  CLEAR     79  32  18 SW9       29.75R
BAUDETTE       CLEAR     70  40  33 CALM      29.69S
WASKISH        CLEAR     77  39  25 SW8       29.72S
CROOKSTON      CLEAR     73  34  23 W7        29.74R
STEPHEN NDAWN    N/A     79  37  22 SW7         N/A
GREENBUSH NDAW   N/A     73  39  29 SW6         N/A
$$
  *****  WEATHER ACROSS CENTRAL AND WEST MINNESOTA  *****

CITY           SKY/WX    TMP DP  RH WIND       PRES   REMARKS
FOSSTON        CLEAR     68  32  26 SW3       29.78R
BEMIDJI        CLEAR     76  37  24 SW5       29.78R
PARK RAPIDS    CLEAR     72  37  28 SW8       29.80R
ELBOW LAKE     FAIR      68  42  38 W10       29.84S
WADENA         CLEAR     72  43  35 SW6       29.83R
DETROIT LAKES  CLEAR     73  37  27 SW7       29.82R
MOORHEAD       CLEAR     75  37  25 S7        29.78R
FERGUS FALLS   CLEAR     72  41  33 SW12      29.79R
MORRIS MN      CLEAR     72  41  33 SW12      29.85R
STAPLES        CLEAR     72  39  30 SW8       29.83R
$$
  *****  WEATHER ELSEWHERE ACROSS MINNESOTA  *****

CITY           SKY/WX    TMP DP  RH WIND       PRES   REMARKS
DULUTH         PTCLDY    72  41  32 SW12      29.79S
INTRNTL FALLS  PTCLDY    65  48  54 CALM      29.70R
ELY            PTCLDY    72  39  30 S5        29.75S
CLOQUET        PTCLDY    72  36  26 SW8       29.81R
WHEATON        CLEAR     73  43  33 S10       29.85R
BRAINERD       CLEAR     68  44  42 S8        29.82S
HIBBING        CLEAR     72  41  32 SW5       29.76S
ALEXANDRIA     CLEAR     71  42  35 SW9       29.86S
SAINT CLOUD    CLEAR     72  42  34 SW7       29.85S
MINNEAPOLIS    PTCLDY    74  38  27 S7        29.87F
$$

  *****  WEATHER ACROSS SOUTH DAKOTA  *****

CITY           SKY/WX    TMP DP  RH WIND       PRES   REMARKS
SIOUX FALLS    PTCLDY    65  46  50 S8        29.92S
BROOKINGS      CLEAR     68  46  45 S9        29.91S
WATERTOWN      CLEAR     66  43  43 S6        29.89S
HURON          CLEAR     73  45  36 S10       29.85S
SISSETON         N/A     70  44  39 SW10      29.83R
ABERDEEN       CLEAR     72  41  32 S10       29.82S
MITCHELL       CLEAR     69  49  48 S9        29.88S
PIERRE         MOCLDY    71  52  50 E12       29.79S
MOBRIDGE       PTCLDY    72  32  23 SE7       29.78R
RAPID CITY     MOCLDY    67  46  47 E10       29.85S
$$

  *****  SOME WEATHER IN NEARBY STATES *****

CITY           SKY/WX    TMP DP  RH WIND       PRES   REMARKS
GLASGOW MT     PTCLDY    77  42  28 N5        29.77R
GREAT FALLS MT CLOUDY    66  42  41 N17       29.92R
CHEYENNE WY    MOCLDY    66  32  28 S7        30.05S
SCOTTSBLUFF NE MOCLDY    74  41  30 SE7       29.93R
OMAHA NE       MOCLDY    66  46  48 SE6       29.99S
DES MOINES IA  PTCLDY    64  37  36 S7        30.00S
DAVENPORT IA   CLEAR     56  37  49 S5        29.99S
CHICAGO IL     PTCLDY    52  37  56 E3        29.98R
EAU CLAIRE WI  PTCLDY    62  39  42 S7        29.90F
LA CROSSE WI   MOCLDY    63  41  44 S5        29.93F
$$

  *****  SOME NATIONAL WEATHER *****

CITY           SKY/WX    TMP DP  RH WIND       PRES   REMARKS
LA GUARDIA NY  CLOUDY    54  48  80 NE14      29.68R
RALEIGH NC     LGT RAIN  49  47  93 W5        29.67R
ATLANTA GA     PTCLDY    52  36  54 N20       29.86R
NEW ORLEANS LA PTCLDY    74  46  36 N10       29.92R
OKLAHOMA CITY  PTCLDY    72  42  34 E5        30.03R
ALBUQUERQUE NM MOCLDY    78  24  13 S17       30.00R
SALT LAKE CITY CLOUDY    79  29  16 SE10      29.75F
LOS ANGELES CA MOCLDY    63  49  60 W9        29.86F
BOISE ID       CLOUDY    72  45  37 NW15      29.73R
SEATTLE WA     MOSUNNY   66  48  52 N10       30.01S
$$

*** WEATHER ACROSS MANITOBA...SASKATCHEWAN AND ONTARIO ***
                ***ONTARIO***

CITY           SKY/WX    TMP DP  RH WIND       PRES   REMARKS
GERALDTON      PTCLDY    50  34  53 S9        29.80R
THUNDER BAY    PTCLDY    43  34  70 NE5       29.80S
SIOUX LOOKOUT  MOCLDY    63  46  55 SE5       29.67S
TORONTO        PTCLDY    55  39  54 N12       29.81S
BIG TROUT LK   MOCLDY    37  19  48 E8        29.85R
PICKLE LAKE    MOCLDY    63  43  48 SE5       29.69F
DRYDEN         CLEAR     75  43  31 S8        29.67S
KENORA         MOCLDY    75  41  29 SW3       29.67F
$$
                *** MANITOBA***

CITY           SKY/WX    TMP DP  RH WIND       PRES   REMARKS
BRANDON        CLOUDY    75  37  25 SW6       29.65
DAUPHIN        PTCLDY    81  37  21 SW8       29.60R
ISLAND LAKE    CLOUDY    52  34  50 E12G23    29.68F
PILOT MOUND      N/A     72  34  25 SW10        N/A
THE PAS        CLOUDY    63  43  48 NE6       29.67R
THOMPSON       CLOUDY    43  21  42 NE12      29.80R
WINNIPEG       MOCLDY    82  34  17 W6        29.62S
LYNN LAKE      CLOUDY    41  37  87 E5        29.81S
CHURCHILL      CLOUDY    25  19  80 E9        30.01S WCI  15
GILLAM         CLOUDY    28  21  74 NE6       29.92R WCI  22
$$
                ***SASKATCHEWAN***

CITY           SKY/WX    TMP DP  RH WIND       PRES   REMARKS
ESTEVAN        MOCLDY    75  37  25 W10       29.70R
KINDERSLEY     MOCLDY    55  39  54 NW22      29.97R
LLOYDMINSTER   MOCLDY    52  37  58 W10       30.00S
PRINCE ALBERT  MOCLDY    59  37  44 N14       29.85R
REGINA         MOCLDY    75  37  25 W10       29.73R
YORKTON        CLEAR     75  43  31 W10       29.64R
N. BATTLEFORD  CLEAR     57  39  51 N14G22    29.95R
LA RONGE       MOCLDY    50  45  81 W6        29.90R
SASKATOON      PTCLDY    59  41  51 N21G29    29.87R
SWIFT CURRENT  MOCLDY    66  41  39 N16G23    29.88R HAZE
$$
NOTE: THESE ARE AUTOMATED STATIONS WITH LIMITED QUALITY CONTROL
      "FAIR" INDICATES FEW OR NO CLOUDS BELOW 12,000 FEET WITH NO
      SIGNIFICANT WEATHER AND/OR OBSTRUCTIONS TO VISIBILITY.
      SKY/WX - SKY CONDITION AND SIGNIFICANT WEATHER.
      TMP - AIR TEMPERATURE.    DP   - DEWPOINT TEMPERATURE.
      RH  - RELATIVE HUMIDITY.  PRES - PRESSURE.
      HX  - HEAT INDEX.         WCI  - WIND CHILL INDEX.
$




USA.gov is the U.S. government's official web portal to all federal, state and local government web resources and services.